Regional Weather Roundup
Issued by NWS

Home | Current Version | Previous Version | Text Only | Print | Product List | Glossary Off
Versions: 1 2 3 4 5 6 7 8 9 10 11 12 13 14 15 16 17 18 19 20 21 22 23 24 25 26 27 28 29 30 31 32 33 34 35 36 37 38 39 40 41 42 43 44 45 46 47 48 49 50

000
ASUS43 KMKX 070810
RWRWI

WISCONSIN REGIONAL WEATHER ROUNDUP
NATIONAL WEATHER SERVICE MILWAUKEE/SULLIVAN WI
200 AM CST SUN FEB 07 2016

NOTE: "FAIR" INDICATES FEW OR NO CLOUDS BELOW 12,000 FEET WITH NO
SIGNIFICANT WEATHER AND/OR OBSTRUCTIONS TO VISIBILITY.

WIZ001-002-006>008-014>016-023>028-070900-
NORTHWEST WISCONSIN

CITY           SKY/WX    TMP DP  RH WIND       PRES   REMARKS
SUPERIOR ARPT  CLOUDY    33  30  88 SW13G22   29.59F WCI  24
ASHLAND        CLOUDY    31  28  89 S15G21    29.62F WCI  20
HAYWARD        CLOUDY    31  26  82 S10       29.64F WCI  22
SIREN          CLOUDY    33  28  83 S9        29.65F WCI  25
CUMBERLAND     CLOUDY    32  28  86 S12       29.67R WCI  23
RICE LAKE      CLOUDY    31  28  86 S9        29.70R WCI  23
CHETEK         MOCLDY    31  28  88 S5        29.70R WCI  26
LADYSMITH      CLOUDY    30  28  90 S6        29.69F WCI  24
EAU CLAIRE     PTCLDY    32  26  78 SW7       29.71F WCI  26
MENOMONIE      MOCLDY    33  28  83 S7        29.71R WCI  27
NEW RICHMOND   PTCLDY    32  27  81 S9        29.68F WCI  24
OSCEOLA        CLOUDY    33  29  86 S7        29.71S WCI  26
$$

WIZ003>005-009-010-017-018-070900-
NORTH CENTRAL WISCONSIN

CITY           SKY/WX    TMP DP  RH WIND       PRES   REMARKS
MANITOWISH WTR MIX PCPN  28  26  95 S13       29.65F WCI  17
ARBOR VITAE    LGT SNOW  29  26  89 S13G18    29.67F WCI  19
WOODRUFF       LGT SNOW  29  26  89 S13G18    29.67F WCI  19
RHINELANDER    LGT SNOW  28  24  85 S13       29.69F FOG     WCI  17
EAGLE RIVER    LGT SNOW  28  24  86 S12       29.67F WCI  18
LAND O LAKES   LGT SNOW  28  26  91 S9        29.66F WCI  20
PHILLIPS       CLOUDY    28  26  94 S9        29.66F WCI  19
TOMAHAWK       CLOUDY    28  25  91 S3        29.71F FOG
MEDFORD        CLOUDY    28  27  96 S10       29.69F WCI  19
MERRILL        MIX PCPN  29  27  93 S9        29.73F WCI  20
$$

WIZ029-030-035-036-043>047-070900-
CENTRAL WISCONSIN

CITY           SKY/WX    TMP DP  RH WIND       PRES   REMARKS
WAUSAU         LGT SNOW  30  27  88 S10       29.74F FOG     WCI  21
MOSINEE        LGT SNOW  30  28  93 S14       29.76F WCI  20
MARSHFIELD     CLOUDY    30  25  81 S14       29.71F WCI  19
STEVENS POINT  MIX PCPN  28  26  89 S12       29.78F WCI  18
WAUPACA        CLOUDY    32  28  82 S8        29.81F WCI  25
WAUTOMA        CLOUDY    32  29  89 S6        29.83F WCI  26
WISC RAPIDS    CLOUDY    32  26  78 S9        29.79F WCI  24
CAMP DOUGLAS   CLOUDY    33  33 100 S8        29.78F WCI  26
$$

WIZ011>013-019>022-031-037>040-048>050-070900-
NORTHEAST WISCONSIN

CITY           SKY/WX    TMP DP  RH WIND       PRES   REMARKS
ANTIGO         FLURRIES  27  25  90 S10       29.75F WCI  18
SHAWANO        CLOUDY    32  27  81 CALM      29.82F
OCONTO         CLOUDY    30  27  87 S6        29.84F WCI  24
STURGEON BAY   CLOUDY    30  23  74 S12       29.87F WCI  21
GREEN BAY      CLOUDY    32  27  81 S9        29.85F WCI  24
MANITOWOC      CLOUDY    32  28  85 S10       29.89F WCI  24
APPLETON       CLOUDY    32  27  80 S12       29.82F WCI  23
CLINTONVILLE   CLOUDY    32  27  80 S7        29.82F WCI  26
OSHKOSH        CLOUDY    33  28  81 S14G23    29.84F WCI  23
$$

WIZ032>034-041-042-053>061-070900-
SOUTHWEST WISCONSIN

CITY           SKY/WX    TMP DP  RH WIND       PRES   REMARKS
LA CROSSE      CLOUDY    34  28  79 S14G24    29.75F WCI  25
SPARTA         CLOUDY    35  30  83 S7        29.78F WCI  29
VIROQUA        CLOUDY    33  30  88 S14G22    29.78F WCI  24
BOSCOBEL       CLOUDY    35  32  88 SW6       29.85F WCI  30
PRAIRIE DU CHI CLOUDY    38  28  69 S5        29.82F WCI  34
PLATTEVILLE    CLOUDY    35  32  87 S15       29.87F WCI  26
$$

WIZ056-057-062-063-064-067-068-070900-
SOUTH CENTRAL WISCONSIN

CITY           SKY/WX    TMP DP  RH WIND       PRES   REMARKS
REEDSBURG      PTCLDY    35  30  83 S12       29.83F WCI  26
BARABOO/DELLS  PTCLDY    34  29  82 SW12      29.83F WCI  26
LONE ROCK      CLOUDY    37  29  72 S17       29.85F WCI  27
MINERAL POINT  CLOUDY    36  32  87 S12       29.85F WCI  27
MADISON        CLOUDY    33  29  85 S8        29.87F WCI  26
MIDDLETON      CLOUDY    36  31  82 S10       29.87F WCI  28
WATERTOWN      CLOUDY    33  33  98 S8        29.89F WCI  26
MONROE         CLOUDY    34  32  93 S16       29.89F WCI  23
JANESVILLE     CLOUDY    36  32  87 S10       29.92F WCI  28
$$

WIZ051-052-058>065-066-070>072-070900-
SOUTHEAST WISCONSIN

CITY           SKY/WX    TMP DP  RH WIND       PRES   REMARKS
MILWAUKEE      CLOUDY    33  28  81 S9        29.95F WCI  25
WAUKESHA       CLOUDY    32  28  86 S8        29.93F WCI  25
MILWAUKEE/TIMM CLOUDY    32  28  86 S7        29.94F WCI  26
RACINE         CLOUDY    35  27  72 SW9       29.97F WCI  28
BURLINGTON     PTCLDY    32  28  83 S9        29.94F WCI  24
KENOSHA        CLOUDY    35  28  75 S9        29.96F WCI  28
FOND DU LAC    CLOUDY    34  29  82 S16G23    29.86F WCI  24
SHEBOYGAN      CLOUDY    33  28  81 S7        29.89F WCI  27
WEST BEND      MOCLDY    34  30  86 S12       29.90F WCI  25
JUNEAU         CLOUDY    32  29  89 S14G22    29.89F WCI  22
$$

LSZ147-162-070900-
LAKE SUPERIOR

STATION/POSITION TIME  TEMP    WIND        PRES    WAVE
                       AIR SEA DIR/SP/G            HT/PER
                 (UTC) (F)     (DEG/KT/KT) (MB)    (FT/S)
DEVILS ISLAND    0800   32     190/  8/ 11 1002.8F
PORT WING        0720          180/ 10/ 22 1002.7
SAXON HARBOR     0700   32                 1003.4F
$$

LMZ867-665-643>646-070900-
LAKE MICHIGAN

STATION/POSITION TIME  TEMP    WIND        PRES    WAVE
                       AIR SEA DIR/SP/G            HT/PER
                 (UTC) (F)     (DEG/KT/KT) (MB)    (FT/S)
CHAMBERS ISLAND  0700   29     180/  5/ 11 1011.5F
ALGOMA LAKESHORE 0711          220/ 16/ 19   N/A
KEWAUNEE LAKESHO 0700   31     200/  9/ 11 1012.0F
SHEBOYGAN LAKESH 0800   34     180/ 15/ 15 1013.4F
PORT WASHINGTON  0700   33     210/  4/  7 1015.2
MILWAUKEE LAKESH 0710   34     210/  8/ 10   N/A
KENOSHA   LAKESH 0800   36     180/  7/ 10 1014.9F
$$

TC  - TEMPERATURE IN CELSIUS
VSB - VISIBILITY IN STATUTE MILES
WCI - WIND CHILL INDEX
HX  - HEAT INDEX





USA.gov is the U.S. government's official web portal to all federal, state and local government web resources and services.